Lafayette, LA

10:42 PM CST on February 12, 2016 (GMT -0600)
Lafayette Regional

Weather History for KLFT - March, 2011

Change the Weather History Date:

Wednesday, March 9, 2011

  Actual Average Record
Temperature  
Mean Temperature 67 °F 61 °F  
Max Temperature 78 °F 71 °F 91 °F (1911)
Min Temperature 56 °F 51 °F 25 °F (1996)
Degree Days  
Heating Degree Days 0 6  
Month to date heating degree days 35 59  
Since 1 July heating degree days 1485 1289  
Cooling Degree Days 2 2  
Month to date cooling degree days 15 12  
Year to date cooling degree days 72 44  
Growing Degree Days 17 (Base 50)    
Moisture  
Dew Point 61 °F    
Average Humidity 68    
Maximum Humidity 90    
Minimum Humidity 46    
Precipitation  
Precipitation 0.02 in 0.13 in 2.33 in (1921)
Month to date precipitation 1.97 1.23  
Year to date precipitation 8.21 11.35  
Snow  
Snow 0.00 in 0.00 in 0.00 in ()
Month to date snowfall 0.0 0.0  
Since 1 July snowfall 0.0 T  
Snow Depth 0.00 in    
Sea Level Pressure  
Sea Level Pressure 29.95 in    
Wind  
Wind Speed 11 mph (West)    
Max Wind Speed 18 mph    
Max Gust Speed 25 mph    
Visibility 8 miles    
Events Rain    
T = Trace of Precipitation, MM = Missing Value Source: NWS Daily Summary

Daily Weather History Graph

Daily Weather History Graph

Search for Another Location

Airport or City:

Trip Planner

Search our weather history database for the weather conditions in past years. The results will help you decide how hot, cold, wet, or windy it might be!

Date:

Astronomy

Mar. 09, 2011 Rise Set
Actual Time 6:25 AM CST 6:12 PM CST
Civil Twilight 6:01 AM CST 6:36 PM CST
Nautical Twilight 5:33 AM CST 7:03 PM CST
Astronomical Twilight 5:05 AM CST 7:31 PM CST
Moon 8:42 AM CST (3/9) 10:42 PM CST (3/9)
Length of Visible Light 12h 34m
Length of Day
11h 46m
Waxing Crescent, 20% of the Moon is Illuminated
Mar 9
Waxing Crescent
Mar 12
First Quarter
Mar 19
Full
Mar 26
Last Quarter
Apr 3
New

Hourly Weather History & Observations

Time (CST) Temp. Dew Point Humidity Pressure Visibility Wind Dir Wind Speed Gust Speed Precip Events Conditions
12:53 AM 72.0 °F 66.9 °F 84% 29.86 in 7.0 mi South 10.4 mph - N/A   Overcast
1:37 AM 71.6 °F 66.2 °F 83% 29.85 in 7.0 mi South 9.2 mph - N/A   Overcast
1:44 AM 71.6 °F 66.2 °F 83% 29.86 in 7.0 mi South 11.5 mph 19.6 mph N/A   Overcast
1:53 AM 72.0 °F 66.9 °F 84% 29.85 in 7.0 mi South 10.4 mph - N/A   Overcast
2:27 AM 71.6 °F 66.2 °F 83% 29.85 in 5.0 mi South 12.7 mph 19.6 mph N/A   Overcast
2:46 AM 71.6 °F 66.2 °F 83% 29.84 in 6.0 mi South 6.9 mph - 0.00 in   Overcast
2:53 AM 71.1 °F 66.9 °F 87% 29.84 in 6.0 mi South 9.2 mph - 0.00 in   Overcast
3:53 AM 71.1 °F 66.9 °F 87% 29.83 in 6.0 mi SSW 8.1 mph - 0.02 in Rain Light Rain
4:53 AM 72.0 °F 68.0 °F 87% 29.85 in 9.0 mi SSW 10.4 mph - 0.00 in   Overcast
5:02 AM 71.6 °F 68.0 °F 88% 29.85 in 9.0 mi SSW 9.2 mph - N/A   Overcast
5:14 AM 71.6 °F 68.0 °F 88% 29.85 in 9.0 mi SW 9.2 mph - N/A   Overcast
5:44 AM 71.6 °F 68.0 °F 88% 29.85 in 8.0 mi WSW 9.2 mph - N/A   Overcast
5:51 AM 71.6 °F 68.0 °F 88% 29.86 in 8.0 mi SW 10.4 mph - N/A   Overcast
5:53 AM 72.0 °F 68.0 °F 87% 29.86 in 8.0 mi SW 10.4 mph - N/A   Overcast
6:28 AM 71.6 °F 68.0 °F 88% 29.86 in 8.0 mi WSW 6.9 mph - N/A   Overcast
6:33 AM 71.6 °F 66.2 °F 83% 29.87 in 7.0 mi WSW 8.1 mph - N/A   Overcast
6:53 AM 72.0 °F 68.0 °F 87% 29.88 in 7.0 mi SW 8.1 mph - N/A   Overcast
7:53 AM 72.0 °F 68.0 °F 87% 29.91 in 6.0 mi West 10.4 mph - 0.00 in   Overcast
8:08 AM 71.6 °F 68.0 °F 88% 29.91 in 6.0 mi West 8.1 mph - N/A   Overcast
8:23 AM 71.6 °F 68.0 °F 88% 29.92 in 5.0 mi WSW 8.1 mph - N/A   Overcast
8:53 AM 73.9 °F 68.0 °F 82% 29.92 in 6.0 mi West 8.1 mph - N/A   Haze
9:06 AM 73.4 °F 68.0 °F 83% 29.93 in 6.0 mi WNW 9.2 mph - N/A   Haze
9:53 AM 73.9 °F 66.9 °F 79% 29.95 in 7.0 mi WNW 8.1 mph - N/A   Overcast
10:06 AM 71.6 °F 60.8 °F 69% 29.96 in 9.0 mi NNW 11.5 mph - N/A   Overcast
10:31 AM 73.4 °F 62.6 °F 69% 29.97 in 10.0 mi NNW 13.8 mph 19.6 mph 0.00 in Rain Light Rain
10:53 AM 73.0 °F 57.9 °F 59% 29.98 in 10.0 mi NNW 13.8 mph 18.4 mph 0.00 in   Mostly Cloudy
11:04 AM 71.6 °F 55.4 °F 57% 29.99 in 10.0 mi NNW 11.5 mph - N/A   Overcast
11:53 AM 75.0 °F 59.0 °F 57% 29.98 in 10.0 mi North 11.5 mph - N/A   Partly Cloudy
12:53 PM 77.0 °F 62.1 °F 60% 29.97 in 10.0 mi WNW 10.4 mph - N/A   Clear
1:53 PM 75.0 °F 60.1 °F 60% 29.97 in 10.0 mi NNW 15.0 mph - N/A   Clear
2:53 PM 75.9 °F 55.9 °F 50% 29.97 in 10.0 mi NNW 13.8 mph - N/A   Clear
3:53 PM 73.9 °F 52.0 °F 46% 29.99 in 10.0 mi NNW 16.1 mph - N/A   Clear
4:53 PM 73.0 °F 52.0 °F 48% 30.01 in 10.0 mi North 13.8 mph - N/A   Clear
5:53 PM 70.0 °F 51.1 °F 51% 30.05 in 10.0 mi North 11.5 mph - N/A   Clear
6:53 PM 66.9 °F 50.0 °F 54% 30.09 in 10.0 mi NNW 8.1 mph - N/A   Clear
7:53 PM 64.0 °F 46.9 °F 54% 30.12 in 10.0 mi NNW 12.7 mph - N/A   Clear
8:53 PM 62.1 °F 45.0 °F 53% 30.17 in 10.0 mi NNW 12.7 mph - N/A   Clear
9:53 PM 60.1 °F 43.0 °F 53% 30.20 in 10.0 mi NNW 13.8 mph 18.4 mph N/A   Clear
10:53 PM 57.9 °F 42.1 °F 56% 30.22 in 10.0 mi NNW 8.1 mph - N/A   Clear
11:53 PM 55.9 °F 39.9 °F 55% 30.22 in 10.0 mi NNW 9.2 mph - N/A   Clear